Location: Unspecified
(48.2082°N, 0.0000°E)
Time: 18:42:30
(UTC+00:00)

Tiros 1 despin weight - Pass Details

Date: 26 June 2019
Orbit: 594 x 642 km, 48.2° (Epoch: 20 August)

Event Time Altitude Azimuth Distance (km) Brightness Sun altitude
Rises 04:12:48 0° 280° (W) 2,832 ? 0.8°
Reaches altitude 10° 04:15:52 10° 258° (WSW) 1,925 ? 1.2°
Maximum altitude 04:18:27 15° 221° (SW) 1,598 ? 1.5°
Drops below altitude 10° 04:21:02 10° 185° (S) 1,922 ? 1.9°
Sets 04:24:07 0° 163° (SSE) 2,824 ? 2.3°
